Colorado City, AZ

7:24 AM MST on November 18, 2019 (GMT -0700)
Colorado City Municipal

Weather History for KAZC - September, 2019

Change the Weather History Date:

Tuesday, September 3, 2019

  Actual Average (KSGU) Record (KSGU)
Temperature  
Mean Temperature 78 °F -  
Max Temperature 96 °F 97 °F 107 °F (1950)
Min Temperature 59 °F 63 °F 47 °F (1961)
Cooling Degree Days 12    
Growing Degree Days 28 (Base 50)    
Moisture  
Dew Point 46 °F    
Average Humidity 35    
Maximum Humidity 72    
Minimum Humidity 14    
Precipitation  
Precipitation 0.00 in - - ()
Sea Level Pressure  
Sea Level Pressure 30.18 in    
Wind  
Wind Speed 3 mph (WNW)    
Max Wind Speed 10 mph    
Max Gust Speed 16 mph    
Visibility 10 miles    
Events      
Averages and records for this station are not official NWS values.
T = Trace of Precipitation, MM = Missing Value Source: NWS Daily Summary

Daily Weather History Graph

Daily Weather History Graph

Search for Another Location

Airport or City:

Astronomy

Sep. 03, 2019 Rise Set
Actual Time 6:04 AM MST 6:57 PM MST
Civil Twilight 5:37 AM MST 7:24 PM MST
Nautical Twilight 5:06 AM MST 7:55 PM MST
Astronomical Twilight 4:34 AM MST 8:27 PM MST
Moon 10:54 AM MST (9/3) 10:04 PM MST (9/3)
Length of Visible Light 13h 46m
Length of Day
12h 53m
Waxing Crescent, 25% of the Moon is Illuminated
Sep 3
Waxing Crescent
Sep 5
First Quarter
Sep 13
Full
Sep 21
Last Quarter
Sep 28
New

Hourly Weather History & Observations

Time (MST) Temp. Dew Point Humidity Pressure Visibility Wind Dir Wind Speed Gust Speed Precip Events Conditions
12:15 AM 68.0 °F 50.0 °F 52% 30.23 in 10.0 mi SE 3.5 mph - N/A   Clear
12:55 AM 64.4 °F 50.0 °F 59% 30.22 in 10.0 mi Calm Calm - N/A   Clear
1:15 AM 64.4 °F 50.0 °F 59% 30.22 in 10.0 mi Calm Calm - N/A   Clear
1:35 AM 62.6 °F 50.0 °F 63% 30.22 in 10.0 mi Calm Calm - N/A   Clear
1:55 AM 60.8 °F 50.0 °F 68% 30.21 in 10.0 mi Calm Calm - N/A   Clear
2:15 AM 60.8 °F 50.0 °F 68% 30.21 in 10.0 mi SSE 3.5 mph - N/A   Clear
2:35 AM 60.8 °F 50.0 °F 68% 30.20 in - SSE 3.5 mph - N/A   Clear
2:55 AM 60.8 °F 50.0 °F 68% 30.20 in - Calm Calm - N/A   Clear
3:15 AM 62.6 °F 50.0 °F 63% 30.21 in - South 4.6 mph - N/A   Clear
3:35 AM 60.8 °F 48.2 °F 63% 30.21 in - ESE 3.5 mph - N/A   Clear
3:55 AM 60.8 °F 50.0 °F 68% 30.22 in - East 5.8 mph - N/A   Clear
4:15 AM 60.8 °F 50.0 °F 68% 30.21 in - East 4.6 mph - N/A   Clear
4:35 AM 60.8 °F 50.0 °F 68% 30.21 in - Calm Calm - N/A   Clear
4:55 AM 59.0 °F 50.0 °F 72% 30.22 in - Calm Calm - N/A   Clear
5:15 AM 62.6 °F 50.0 °F 63% 30.22 in - SSE 4.6 mph - N/A   Clear
5:55 AM 62.6 °F 50.0 °F 63% 30.22 in 10.0 mi Calm Calm - N/A   Clear
6:15 AM 62.6 °F 50.0 °F 63% 30.23 in 10.0 mi Calm Calm - N/A   Clear
6:35 AM 60.8 °F 50.0 °F 68% 30.24 in 10.0 mi Calm Calm - N/A   Clear
6:55 AM 62.6 °F 51.8 °F 68% 30.24 in 10.0 mi Calm Calm - N/A   Clear
7:15 AM 68.0 °F 51.8 °F 56% 30.24 in 10.0 mi Calm Calm - N/A   Clear
7:35 AM 71.6 °F 51.8 °F 50% 30.24 in 10.0 mi Calm Calm - N/A   Clear
7:55 AM 73.4 °F 51.8 °F 47% 30.24 in 10.0 mi Calm Calm - N/A   Clear
8:15 AM 77.0 °F 51.8 °F 41% 30.24 in 10.0 mi Calm Calm - N/A   Clear
8:35 AM 78.8 °F 50.0 °F 36% 30.24 in 10.0 mi Calm Calm - N/A   Clear
8:55 AM 82.4 °F 50.0 °F 32% 30.24 in 10.0 mi SE 3.5 mph - N/A   Clear
9:15 AM 84.2 °F 50.0 °F 30% 30.24 in 10.0 mi Calm Calm - N/A   Clear
9:35 AM 86.0 °F 50.0 °F 29% 30.24 in 10.0 mi Calm Calm - N/A   Clear
9:55 AM 86.0 °F 50.0 °F 29% 30.24 in 10.0 mi Calm Calm - N/A   Clear
10:15 AM 87.8 °F 50.0 °F 27% 30.23 in 10.0 mi Calm Calm - N/A   Clear
10:35 AM 89.6 °F 50.0 °F 26% 30.23 in 10.0 mi Calm Calm - N/A   Clear
10:55 AM 91.4 °F 50.0 °F 24% 30.22 in 10.0 mi WNW 6.9 mph - N/A   Clear
11:15 AM 91.4 °F 50.0 °F 24% 30.21 in 10.0 mi WSW 3.5 mph - N/A   Clear
11:35 AM 91.4 °F 46.4 °F 21% 30.20 in 10.0 mi NNW 4.6 mph - N/A   Clear
11:55 AM 93.2 °F 46.4 °F 20% 30.20 in 10.0 mi North 4.6 mph - N/A   Clear
12:15 PM 95.0 °F 46.4 °F 19% 30.19 in 10.0 mi WNW 6.9 mph - N/A   Clear
12:35 PM 95.0 °F 42.8 °F 16% 30.18 in 10.0 mi WNW 6.9 mph - N/A   Clear
12:55 PM 96.8 °F 42.8 °F 16% 30.18 in 10.0 mi WNW 6.9 mph - N/A   Clear
1:15 PM 95.0 °F 42.8 °F 16% 30.17 in 10.0 mi NW 10.4 mph - N/A   Clear
1:35 PM 96.8 °F 39.2 °F 14% 30.16 in 10.0 mi West 10.4 mph - N/A   Clear
1:55 PM 96.8 °F 41.0 °F 15% 30.15 in 10.0 mi WSW 10.4 mph - N/A   Clear
2:15 PM 96.8 °F 41.0 °F 15% 30.15 in 10.0 mi NNW 6.9 mph 16.1 mph N/A   Clear
2:35 PM 96.8 °F 39.2 °F 14% 30.14 in 10.0 mi NNW 4.6 mph - N/A   Clear
2:55 PM 96.8 °F 39.2 °F 14% 30.13 in 10.0 mi West 6.9 mph - N/A   Clear
3:15 PM 96.8 °F 41.0 °F 15% 30.13 in 10.0 mi SW 5.8 mph - N/A   Clear
3:35 PM 96.8 °F 39.2 °F 14% 30.12 in 10.0 mi NW 3.5 mph - N/A   Clear
3:55 PM 96.8 °F 39.2 °F 14% 30.12 in 10.0 mi West 8.1 mph - N/A   Clear
4:15 PM 96.8 °F 39.2 °F 14% 30.11 in 10.0 mi WNW 9.2 mph - N/A   Clear
4:35 PM 96.8 °F 39.2 °F 14% 30.11 in 10.0 mi NW 3.5 mph - N/A   Clear
4:55 PM 96.8 °F 39.2 °F 14% 30.11 in 10.0 mi West 5.8 mph - N/A   Clear
5:15 PM 96.8 °F 39.2 °F 14% 30.11 in 10.0 mi WSW 6.9 mph - N/A   Clear
5:35 PM 95.0 °F 41.0 °F 15% 30.11 in 10.0 mi WNW 8.1 mph - N/A   Clear
5:55 PM 95.0 °F 39.2 °F 14% 30.11 in 10.0 mi WNW 3.5 mph - N/A   Clear
6:15 PM 93.2 °F 41.0 °F 16% 30.11 in 10.0 mi WNW 6.9 mph - N/A   Clear
6:35 PM 91.4 °F 42.8 °F 18% 30.11 in 10.0 mi WNW 5.8 mph - N/A   Clear
6:55 PM 87.8 °F 42.8 °F 21% 30.11 in 10.0 mi WNW 6.9 mph - N/A   Clear
7:15 PM 86.0 °F 42.8 °F 22% 30.12 in 10.0 mi WNW 6.9 mph - N/A   Clear
7:35 PM 84.2 °F 42.8 °F 23% 30.12 in - NW 4.6 mph - N/A   Clear
7:55 PM 82.4 °F 42.8 °F 25% 30.13 in - NNW 5.8 mph - N/A   Clear
8:15 PM 82.4 °F 42.8 °F 25% 30.13 in - NNW 4.6 mph - N/A   Clear
8:35 PM 78.8 °F 42.8 °F 28% 30.13 in - North 5.8 mph - N/A   Clear
8:55 PM 80.6 °F 42.8 °F 26% 30.14 in - North 5.8 mph - N/A   Clear
9:15 PM 78.8 °F 42.8 °F 28% 30.14 in - North 5.8 mph - N/A   Clear
9:35 PM 77.0 °F 42.8 °F 29% 30.15 in - Calm Calm - N/A   Clear
9:55 PM 77.0 °F 42.8 °F 29% 30.15 in - Calm Calm - N/A   Clear
10:15 PM 73.4 °F 42.8 °F 33% 30.15 in - Calm Calm - N/A   Clear
10:35 PM 73.4 °F 42.8 °F 33% 30.15 in - SSE 4.6 mph - N/A   Clear
10:55 PM 73.4 °F 42.8 °F 33% 30.15 in - Calm Calm - N/A   Clear
11:15 PM 73.4 °F 42.8 °F 33% 30.16 in - SE 4.6 mph - N/A   Clear
11:35 PM 73.4 °F 42.8 °F 33% 30.16 in - SE 5.8 mph - N/A   Clear
11:55 PM 71.6 °F 42.8 °F 35% 30.16 in - ESE 4.6 mph - N/A   Clear